TimeCST,TemperatureF,Dew PointF,Humidity,Sea Level PressureIn,VisibilityMPH,Wind Direction,Wind SpeedMPH,Gust SpeedMPH,PrecipitationIn,Events,Conditions,WindDirDegrees,DateUTC
12:53 AM,39.9,32.0,73,30.27,10.0,ENE,5.8,-,N/A,,Clear,70,2013-01-08 06:53:00
1:53 AM,39.0,32.0,76,30.26,10.0,East,5.8,-,N/A,,Partly Cloudy,90,2013-01-08 07:53:00
2:53 AM,39.9,33.1,77,30.25,10.0,East,4.6,-,N/A,,Clear,80,2013-01-08 08:53:00
3:53 AM,41.0,33.1,73,30.26,10.0,ENE,3.5,-,N/A,,Clear,60,2013-01-08 09:53:00
4:53 AM,43.0,35.1,74,30.27,10.0,ENE,4.6,-,N/A,,Overcast,60,2013-01-08 10:53:00
5:53 AM,45.0,36.0,71,30.29,10.0,ENE,5.8,-,N/A,,Overcast,70,2013-01-08 11:53:00
6:53 AM,44.1,35.1,71,30.30,10.0,ENE,8.1,-,N/A,,Scattered Clouds,70,2013-01-08 12:53:00
7:53 AM,46.9,36.0,66,30.32,10.0,East,10.4,-,N/A,,Clear,80,2013-01-08 13:53:00
8:53 AM,51.1,37.0,59,30.33,10.0,East,12.7,-,N/A,,Clear,80,2013-01-08 14:53:00
9:53 AM,54.0,39.0,57,30.33,10.0,ENE,11.5,-,N/A,,Partly Cloudy,70,2013-01-08 15:53:00
10:53 AM,57.0,41.0,55,30.32,10.0,NE,5.8,-,N/A,,Overcast,50,2013-01-08 16:53:00
11:25 AM,59.0,42.8,55,30.30,10.0,ENE,8.1,-,N/A,,Overcast,70,2013-01-08 17:25:00
11:53 AM,59.0,43.0,55,30.29,10.0,ENE,4.6,-,N/A,,Overcast,70,2013-01-08 17:53:00
12:36 PM,60.8,44.6,55,30.27,10.0,East,5.8,-,N/A,,Overcast,90,2013-01-08 18:36:00
12:53 PM,62.1,44.1,52,30.25,10.0,NE,6.9,-,N/A,,Overcast,50,2013-01-08 18:53:00
1:53 PM,62.1,45.0,53,30.24,10.0,East,5.8,-,N/A,,Overcast,100,2013-01-08 19:53:00
2:53 PM,62.1,46.0,56,30.24,10.0,East,4.6,-,N/A,,Overcast,80,2013-01-08 20:53:00
3:53 PM,63.0,46.0,54,30.24,10.0,East,3.5,-,N/A,,Overcast,90,2013-01-08 21:53:00
4:53 PM,59.0,46.9,64,30.24,10.0,East,4.6,-,N/A,,Overcast,90,2013-01-08 22:53:00
5:30 PM,60.8,48.2,63,30.25,10.0,East,3.5,-,N/A,,Overcast,90,2013-01-08 23:30:00
5:40 PM,60.8,48.2,63,30.25,10.0,East,8.1,-,N/A,,Overcast,80,2013-01-08 23:40:00
5:53 PM,60.1,48.0,64,30.25,10.0,East,6.9,-,N/A,,Overcast,90,2013-01-08 23:53:00
6:04 PM,59.0,48.2,67,30.24,10.0,East,6.9,-,N/A,,Overcast,90,2013-01-09 00:04:00
6:25 PM,57.2,46.4,67,30.24,10.0,East,5.8,-,N/A,,Overcast,80,2013-01-09 00:25:00
6:53 PM,60.1,46.9,62,30.25,10.0,East,8.1,-,N/A,,Overcast,80,2013-01-09 00:53:00
7:53 PM,60.1,46.9,62,30.25,10.0,ENE,9.2,-,N/A,,Overcast,70,2013-01-09 01:53:00
8:53 PM,59.0,46.9,64,30.25,10.0,ENE,11.5,-,N/A,,Overcast,70,2013-01-09 02:53:00
9:53 PM,57.9,46.9,67,30.25,10.0,East,11.5,-,N/A,,Mostly Cloudy,80,2013-01-09 03:53:00
10:53 PM,59.0,48.0,67,30.27,10.0,East,9.2,-,N/A,,Overcast,80,2013-01-09 04:53:00
11:53 PM,59.0,48.0,67,30.27,10.0,East,10.4,-,N/A,,Overcast,90,2013-01-09 05:53:00